#timestamp,LO_Frequency,Hit,StdDev 
1618974015.1,286046999.3,N
1618974035.9,286046998.9,N
1618974055.7,286047000.5,N
1618974075.5,286047001.3,N
1618974095.4,286047003.4,N
1618974115.2,286047005.9,Y
1618974135.1,286047003.2,P
1618974136.0,286047003.2,P
1618974155.8,286047002.4,N
1618974175.6,286047004.0,Y
1618974195.5,286047003.6,P
1618974215.3,286047002.7,P
1618974235.1,286047000.0,N
1618974255.9,286046997.7,N
1618974275.7,286046994.6,N
1618974295.6,286046994.4,N
1618974315.4,286046991.2,N
1618974335.2,286046991.1,N
1618974355.1,286046988.8,N
1618974356.0,286046988.8,N
1618974375.8,286046989.1,N
1618974395.6,286046989.0,N
1618974415.5,286046989.8,N
1618974435.3,286046989.3,N
1618974455.2,286046988.1,N
1618974475.9,286046987.3,N
1618974495.7,286046988.5,N
1618974515.6,286046993.0,N
1618974535.4,286046994.3,N
1618974555.3,286046997.7,N
1618974575.1,286047000.7,N
1618974576.0,286047000.7,N
1618974595.8,286047002.4,N
1618974615.7,286047001.9,N
1618974635.5,286047004.3,N
1618974655.3,286047005.3,N
1618974675.2,286047008.1,N
1618974695.0,286047011.8,N
1618974695.9,286047011.8,N
1618974715.8,286047013.6,N
1618974735.6,286047013.7,N
1618974755.4,286047015.0,N
1618974775.3,286047014.4,N
1618974795.1,286047016.4,N
1618974815.9,286047014.1,N
1618974835.7,286047018.0,N
1618974855.5,286047019.3,N
1618974875.4,286047018.8,N
1618974895.2,286047017.2,N
1618974915.0,286047013.0,N
1618974915.9,286047013.0,N
1618974935.8,286047012.5,N
1618974955.6,286047011.0,N
1618974975.5,286047013.2,N
1618974995.3,286047011.9,N
1618975015.1,286047009.8,N
1618975035.9,286047009.1,N
1618975055.7,286047007.8,N
1618975075.5,286047009.3,N
1618975095.4,286047012.1,N
1618975115.2,286047010.1,N
1618975135.1,286047013.6,N
1618975136.0,286047013.6,Y
1618975155.8,286047001.4,P
1618975175.7,286047003.2,N
1618975195.5,286047008.9,N
1618975215.3,286047012.4,N
1618975235.2,286047011.5,N
1618975255.0,286047012.9,N
1618975255.9,286047012.9,N
1618975275.8,286047013.1,Y
1618975295.6,286047003.3,P
1618975315.4,286047003.6,N
1618975335.3,286047004.2,N
1618975355.1,286047006.0,N
1618975375.8,286047005.5,N
1618975395.7,286047001.4,N
1618975415.5,286047000.5,N
1618975435.4,286046995.2,N
1618975455.2,286046990.6,N
1618975475.0,286046990.9,N
1618975475.9,286046990.9,N
1618975495.8,286046989.2,N
1618975515.6,286046989.5,N
1618975535.5,286046986.4,N
1618975555.3,286046982.1,N
1618975575.1,286046984.3,N
1618975595.9,286046988.4,N
1618975615.7,286046989.8,N
1618975635.5,286046992.0,N
1618975655.4,286046995.2,N
1618975675.2,286046995.9,N
1618975695.1,286046995.5,N
1618975696.0,286046995.5,N
1618975715.8,286046995.4,N
1618975735.6,286046997.1,N
1618975755.5,286046997.9,N
1618975775.3,286046996.1,N
1618975795.1,286046995.8,N
1618975815.9,286046995.9,N
1618975835.7,286046991.8,N
1618975855.6,286046990.4,N
1618975875.4,286046989.8,N
1618975895.2,286046987.3,N
1618975915.1,286046989.7,N
1618975916.0,286046989.7,N
1618975935.8,286046991.1,N
1618975955.7,286046993.6,N
1618975975.5,286046994.9,N
1618975995.3,286046999.3,N
1618976015.2,286047000.9,N
1618976035.0,286047002.3,N
1618976035.9,286047002.3,N
1618976055.7,286047002.7,N
1618976075.6,286047002.2,N
1618976095.4,286047001.8,N
1618976115.3,286047003.3,N
1618976135.1,286047007.3,N
1618976155.8,286047008.9,N
1618976175.7,286047011.5,N
1618976195.5,286047012.9,N
1618976215.4,286047012.8,N
1618976235.2,286047010.9,N
1618976255.0,286047015.2,N
1618976255.9,286047015.2,N
1618976275.8,286047016.4,N
1618976295.6,286047018.2,N
1618976315.4,286047017.5,N
1618976335.3,286047020.7,N
1618976355.1,286047022.5,N
1618976375.9,286047022.6,N
1618976395.7,286047023.9,N
1618976415.5,286047024.7,N
1618976435.4,286047024.6,N
1618976455.2,286047023.2,N
1618976475.0,286047021.0,N
1618976476.0,286047021.0,N
1618976495.8,286047021.4,N
1618976515.6,286047020.7,N
1618976535.5,286047022.0,N
1618976555.3,286047023.1,N
1618976575.1,286047022.0,N
1618976595.9,286047018.4,N
1618976615.7,286047014.4,N
1618976635.6,286047012.3,N
1618976655.4,286047010.5,N
1618976675.2,286047009.8,N
1618976695.1,286047011.9,N
1618976696.0,286047011.9,N
1618976715.8,286047013.9,N
1618976735.7,286047015.0,Y
1618976755.5,286047003.8,P
1618976775.3,286047008.6,N
1618976795.2,286047009.4,N
1618976815.0,286047011.7,N
1618976815.9,286047011.7,N
1618976835.7,286047012.1,N
1618976855.6,286047013.9,Y
1618976875.4,286047005.4,P
1618976895.3,286047005.6,N
1618976915.1,286047005.0,N
1618976935.8,286047006.3,N
1618976955.7,286047004.9,N
1618976975.5,286047007.1,Y
1618976995.4,286046998.8,P
1618977015.2,286046997.1,N
1618977035.0,286046994.5,N
1618977035.9,286046994.5,N
1618977055.8,286046996.2,N
1618977075.6,286046996.8,N
1618977095.4,286046998.1,N
1618977115.3,286047003.2,N
1618977135.1,286047006.6,N
1618977155.9,286047008.7,N
1618977175.7,286047007.9,N
1618977195.5,286047008.1,N
1618977215.4,286047007.4,N
1618977235.2,286047006.7,N
1618977255.1,286047007.5,N
1618977256.0,286047011.9,N
1618977275.8,286047003.0,N
1618977295.7,286047003.2,N
1618977315.5,286047004.0,N
1618977335.4,286047000.4,N
1618977355.2,286046998.9,N
1618977375.0,286047000.9,N
1618977376.0,286047000.9,N
1618977395.8,286046995.5,N
1618977415.6,286046992.2,N
1618977435.5,286046991.6,N
1618977455.3,286046985.4,N
1618977475.2,286046985.1,N
1618977495.9,286046985.0,N
1618977515.7,286046982.2,N
1618977535.6,286046984.4,N
1618977555.4,286046984.5,N
1618977575.3,286046986.8,N
1618977595.1,286046985.2,N
